This is the latest recevied weather packets stored in our database for station/object DB0TV-13. If no packets are shown the sender has not sent any weather packets the latest 10 day(s).
| Time | Temp. | Humidity | Pressure | Rain* | Wind** | Luminosity | Snow |
|---|---|---|---|---|---|---|---|
| 1777969219 | 13.33° C | 94% | 1009.1 hPa | 0 mm | - | 203 W/m² | - |
| 1777968619 | 13.33° C | 95% | 1009.2 hPa | 0 mm | - | 223 W/m² | - |
| 1777968019 | 13.33° C | 95% | 1009.2 hPa | 0 mm | - | 298 W/m² | - |
| 1777967419 | 12.78° C | 95% | 1009.2 hPa | 0 mm | - | 94 W/m² | - |
| 1777966819 | 12.78° C | 95% | 1009.2 hPa | 0 mm | - | 92 W/m² | - |
| 1777966219 | 12.78° C | 95% | 1009.2 hPa | 0 mm | - | 115 W/m² | - |
| 1777965619 | 12.22° C | 95% | 1009.2 hPa | 0 mm | - | 65 W/m² | - |
| 1777965019 | 12.22° C | 96% | 1009.3 hPa | 0 mm | - | 98 W/m² | - |
| 1777964419 | 12.22° C | 96% | 1009.3 hPa | 0 mm | - | 144 W/m² | - |
| 1777963819 | 12.22° C | 95% | 1009.4 hPa | 0 mm | - | 113 W/m² | - |
| 1777963219 | 12.22° C | 96% | 1009.5 hPa | 0 mm | - | 94 W/m² | - |
| 1777962619 | 12.22° C | 96% | 1009.4 hPa | 0 mm | - | 80 W/m² | - |
| 1777962019 | 11.67° C | 96% | 1009.5 hPa | 0 mm | - | 63 W/m² | - |
| 1777961419 | 11.67° C | 96% | 1009.6 hPa | 0 mm | - | 54 W/m² | - |
| 1777960819 | 11.67° C | 96% | 1009.7 hPa | 0 mm | - | 43 W/m² | - |
| 1777960218 | 12.22° C | 96% | 1009.7 hPa | 0 mm | - | 32 W/m² | - |
| 1777959619 | 11.67° C | 96% | 1009.6 hPa | 0 mm | - | 22 W/m² | - |
| 1777959019 | 12.22° C | 96% | 1009.8 hPa | 0 mm | - | 31 W/m² | - |
| 1777958419 | 11.67° C | 96% | 1009.6 hPa | 0 mm | - | 35 W/m² | - |
| 1777957819 | 11.67° C | 96% | 1009.6 hPa | 0 mm | - | 22 W/m² | - |
| 1777957218 | 11.67° C | 96% | 1009.7 hPa | 0 mm | - | 7 W/m² | - |
| 1777956619 | 11.67° C | 96% | 1009.6 hPa | 0 mm | - | 5 W/m² | - |
| 1777956019 | 11.67° C | 96% | 1009.6 hPa | 0.25 mm | - | 2 W/m² | - |
| 1777955419 | 11.67° C | 96% | 1009.6 hPa | 0.25 mm | - | 7 W/m² | - |
| 1777954818 | 11.67° C | 96% | 1009.7 hPa | 0.25 mm | - | 3 W/m² | - |
* Rain latest hour (hover to see other rain measurements)
** Current wind speed in m/s (hover to see current wind gust speed)